Theta_e
296 297 297 297 297 297 292 285 271 284 288 274 262 262 267 279 277 279 276 274 273 273 273 272 272 274 280 283 284 283 287 283 274 278 283 283 284 283 283 280 275 274 274 276
296 296 296 297 297 297 288 282 276 288 285 268 262 264 267 273 275 276 274 272 275 276 275 272 276 278 283 284 283 281 286 281 275 271 280 281 282 282 286 282 281 275 274 277
295 295 296 296 297 296 289 282 273 278 283 276 270 263 268 265 275 275 277 276 277 275 273 276 275 277 281 284 283 286 284 280 279 274 277 281 276 282 284 283 278 279 280 279
295 295 295 296 296 296 289 282 273 275 272 269 271 274 269 269 269 275 275 272 277 276 272 274 276 278 279 282 283 282 281 273 271 278 281 282 280 279 279 281 283 278 280 276
295 295 295 295 296 296 287 279 273 275 267 272 272 275 272 272 273 273 271 273 276 277 274 275 275 277 278 277 280 280 281 273 275 273 276 279 280 280 280 279 283 283 279 280
295 294 294 295 295 294 285 280 281 280 277 265 271 271 273 274 277 277 278 276 276 276 277 280 281 282 280 279 278 278 277 274 272 269 274 276 273 278 279 281 283 284 277 282
294 294 294 294 295 294 289 286 284 279 273 275 273 275 276 275 276 276 278 278 275 280 284 284 282 280 279 279 278 281 276 274 274 268 272 266 275 280 280 279 282 284 283 285
294 293 294 294 294 294 289 289 284 281 272 276 277 276 275 277 278 278 278 279 280 283 281 274 266 264 268 269 277 278 279 274 268 267 267 273 278 281 281 280 280 285 284 285
293 293 293 293 294 294 291 289 289 284 277 275 279 276 277 273 274 270 277 280 281 281 278 269 261 257 259 263 271 278 279 278 269 263 265 263 275 283 285 286 275 284 285 285
293 293 293 293 294 295 292 289 292 285 278 280 280 276 275 277 275 272 272 277 276 280 273 265 258 260 265 259 262 266 269 267 262 261 262 269 277 281 285 272 277 283 284 286
292 293 292 293 294 294 292 289 292 287 281 282 282 282 279 278 278 272 272 273 271 270 270 269 262 256 262 261 265 266 268 266 265 262 257 261 278 280 275 282 286 285 286 287
292 292 292 293 293 294 294 286 292 292 285 282 284 285 286 284 284 280 278 276 274 277 272 269 267 261 260 259 258 270 267 272 268 271 271 278 279 280 283 285 286 284 287 289
291 291 292 292 293 293 293 288 288 288 284 283 281 280 283 286 285 287 277 276 280 278 281 274 272 268 270 260 263 266 271 276 272 272 277 277 279 280 280 282 283 283 286 288
291 291 291 291 292 293 293 288 289 288 284 277 278 282 282 286 286 285 285 280 281 282 280 272 266 264 274 268 270 270 272 273 270 271 275 276 278 278 279 280 281 281 282 284
290 290 290 290 291 292 291 290 291 291 284 276 275 278 281 283 284 283 283 282 281 275 276 272 269 272 272 272 271 269 272 269 268 269 277 276 277 280 280 279 280 281 281 281
290 290 290 290 290 291 286 282 288 291 290 277 272 274 269 280 282 283 281 282 282 276 272 269 267 270 274 261 259 275 277 277 278 276 279 279 280 281 281 280 281 280 280 281
289 290 289 289 289 286 281 282 286 291 290 277 271 271 276 278 280 276 275 279 279 278 273 268 270 271 276 266 264 275 276 276 277 278 278 278 279 278 280 281 281 278 277 279
289 289 289 290 289 289 285 288 292 291 282 278 268 263 273 281 274 274 275 274 279 277 275 269 268 273 273 268 273 277 277 277 276 277 276 276 275 275 276 278 275 276 278 278
288 288 288 285 285 281 280 290 290 285 279 274 267 266 266 278 272 276 277 277 273 272 273 266 275 270 269 273 275 276 276 274 274 269 270 273 274 273 271 274 276 276 279 279
286 279 271 276 280 286 284 285 281 280 277 263 262 259 265 276 269 268 269 272 270 266 267 269 271 264 275 273 269 268 267 266 264 265 270 267 268 268 267 265 268 270 271 272
270 266 265 278 284 277 279 276 273 271 270 262 260 262 269 273 265 264 272 270 269 264 263 269 263 261 273 264 262 262 262 262 261 261 262 263 262 261 260 260 260 263 265 267
277 275 277 272 272 273 273 271 268 263 265 262 264 266 268 267 269 268 270 269 267 265 261 265 258 268 254 253 256 257 257 256 256 257 258 258 258 255 255 256 256 258 261 262
268 266 265 268 269 268 268 264 263 261 259 263 265 267 271 273 271 267 267 266 265 260 260 260 264 253 250 248 248 250 249 249 249 250 251 253 252 249 248 252 254 255 255 258
260 258 259 261 267 264 267 267 264 263 262 265 266 271 270 268 268 269 268 266 262 258 256 260 260 251 248 248 250 247 248 246 246 247 247 248 249 250 250 251 252 252 254 256
258 256 256 258 262 261 255 251 255 261 260 270 266 267 270 269 270 265 262 259 258 259 260 260 249 249 250 250 249 246 245 247 245 245 246 248 248 249 250 249 250 251 254 255
261 257 256 260 261 265 260 255 257 258 264 265 267 266 266 266 264 262 261 257 256 261 255 249 249 247 246 248 250 250 248 248 247 246 246 248 248 248 248 248 249 251 252 254
253 255 246 249 253 258 259 257 262 261 262 269 266 265 263 264 259 255 255 259 257 248 247 248 248 247 247 248 247 246 246 246 246 246 246 247 247 246 246 248 249 251 253 254
Wind_Speed
22 23 22 23 21 19 4 1 2 3 2 3 1 3 7 4 10 6 10 7 12 16 20 21 18 22 10 6 4 18 19 3 6 14 7 1 7 10 10 11 9 3 3 7
24 23 22 22 21 15 1 3 3 2 2 3 3 5 5 3 7 14 5 7 6 11 17 13 11 17 6 8 7 2 13 9 10 4 3 3 16 12 23 0 4 9 8 6
24 23 23 22 20 16 1 3 2 2 2 3 5 2 7 5 5 13 9 14 14 19 20 18 12 9 3 8 2 11 7 7 4 14 16 7 2 13 18 11 5 12 14 3
24 24 22 20 21 17 2 3 4 4 2 5 6 5 4 6 8 7 4 7 11 12 13 17 7 6 3 4 6 4 4 6 5 6 7 5 6 7 8 18 18 8 6 5
24 25 23 21 21 18 2 2 2 2 4 3 6 10 11 15 21 7 7 10 16 10 12 14 9 6 2 2 1 1 2 1 7 6 12 5 3 5 8 11 17 11 4 5
24 24 24 21 20 15 3 3 3 6 12 4 5 7 12 17 12 12 18 16 14 13 14 15 6 6 7 4 2 2 3 4 2 2 6 6 4 4 3 8 8 16 8 5
25 25 25 21 22 18 5 2 3 4 4 7 9 12 12 16 17 19 16 10 6 5 2 7 3 3 6 6 6 3 1 2 3 1 4 1 2 3 8 9 9 7 3 8
26 24 25 24 24 22 9 5 4 4 6 8 15 14 13 15 14 17 16 18 10 3 2 2 5 7 7 5 6 2 3 1 2 5 3 6 3 4 5 2 6 5 7 5
26 25 28 24 25 24 13 9 8 8 10 12 13 10 14 13 10 5 15 10 4 4 2 3 4 4 5 5 5 2 3 1 3 3 6 5 4 8 6 6 5 7 6 9
27 26 28 25 26 28 15 9 11 8 10 15 11 11 10 6 8 6 2 3 1 6 4 3 4 6 5 3 5 4 3 0 4 2 2 6 5 7 4 5 3 8 6 3
27 28 26 29 29 29 18 12 10 9 8 14 8 14 14 4 12 9 4 4 3 2 5 5 5 3 6 2 5 6 6 6 5 2 4 7 5 5 6 4 7 4 9 11
27 27 27 29 29 29 25 15 9 10 10 6 8 21 20 19 28 12 8 6 5 5 3 3 3 2 2 2 3 2 3 7 5 7 7 2 5 2 3 1 4 5 8 3
26 27 29 30 31 31 27 13 5 3 8 11 7 15 10 12 14 9 7 3 6 3 3 4 2 4 5 5 7 1 5 1 2 3 7 6 4 4 2 3 5 3 2 4
28 29 29 31 32 31 29 11 8 5 4 7 5 4 7 14 15 15 9 6 4 4 2 3 3 4 4 4 4 5 6 6 5 5 9 6 5 6 7 8 5 6 4 6
29 30 29 31 34 34 20 11 13 12 10 5 3 3 5 7 15 18 10 7 6 3 4 2 4 2 3 1 1 4 7 8 6 7 10 7 8 8 6 7 10 9 6 5
29 31 32 31 35 32 11 9 8 15 12 5 5 2 4 3 14 17 12 10 4 2 5 4 3 4 4 3 4 13 9 7 9 11 10 8 11 11 11 12 14 9 9 9
30 34 35 36 37 18 10 7 7 11 9 4 3 2 2 2 6 2 2 2 3 3 4 3 4 2 6 3 6 16 8 9 8 7 5 9 8 9 9 12 17 7 6 7
29 33 38 42 39 28 11 5 12 8 3 2 4 3 3 4 3 3 2 3 3 4 3 2 4 2 2 4 15 13 12 9 7 5 1 6 8 11 15 13 4 8 8 6
28 33 40 12 0 2 7 24 10 0 3 4 2 6 5 3 2 3 2 3 4 1 3 4 6 3 7 17 17 13 11 7 2 5 6 4 2 5 9 3 4 2 1 1
24 8 5 6 2 22 21 6 4 1 1 4 3 2 3 4 1 1 4 1 3 3 5 4 5 6 17 6 4 6 5 4 2 1 2 4 3 7 5 5 6 7 7 7
4 4 4 7 21 4 5 4 3 2 1 1 4 4 6 2 5 4 2 4 4 4 6 6 3 6 15 6 7 6 6 4 2 2 2 2 3 8 9 8 5 6 7 7
4 8 11 6 4 5 6 4 2 2 8 2 6 5 4 2 3 4 3 3 2 5 3 3 4 9 2 2 3 4 4 3 1 2 4 3 3 3 7 6 7 5 6 7
4 5 2 2 6 7 5 5 3 2 5 5 4 3 4 2 2 3 4 4 6 3 3 6 8 2 1 2 1 2 3 3 1 3 3 4 5 3 5 7 6 6 7 7
3 1 7 3 8 6 3 5 4 4 3 7 5 4 4 2 3 4 5 3 4 3 2 10 4 6 5 2 1 2 2 3 4 5 5 6 7 8 7 8 7 5 10 8
2 4 7 7 5 5 4 2 7 2 3 6 4 3 3 2 4 2 5 3 5 9 9 5 3 4 5 4 2 1 3 4 5 4 4 7 7 7 9 6 6 7 10 10
2 3 4 7 5 14 2 3 4 2 4 1 2 4 4 4 5 4 9 7 9 7 4 2 4 4 3 2 2 3 4 5 6 4 4 8 9 8 7 5 7 10 11 14
4 6 1 3 3 5 2 3 2 4 5 5 4 6 9 2 3 3 6 8 4 3 1 2 3 4 2 2 3 3 4 5 5 4 6 7 7 5 5 9 7 10 10 12
Wind_Direction
333 324 325 322 318 324 41 285 294 291 90 131 293 192 199 236 278 232 256 258 262 266 279 280 277 267 270 304 280 212 209 276 145 206 202 270 192 187 185 192 220 230 143 272
331 327 320 327 310 314 128 230 234 312 113 213 249 306 297 246 262 266 251 260 257 294 283 291 263 292 236 277 23 11 194 208 188 3 300 251 202 208 200 144 106 206 159 253
328 325 321 322 316 306 279 256 306 292 220 158 147 149 260 243 255 262 251 256 270 282 269 258 263 273 269 300 71 9 346 233 261 199 211 139 209 206 204 205 178 206 220 206
323 329 317 317 316 305 300 224 230 186 253 266 221 202 224 238 275 238 165 286 242 273 298 314 208 216 237 248 344 39 345 14 21 298 328 194 178 194 196 216 230 183 212 185
322 322 317 316 311 309 220 273 153 242 246 181 187 225 247 260 265 225 262 249 279 278 278 289 312 304 228 287 84 320 313 23 356 33 1 3 273 343 219 216 232 252 132 209
321 318 317 308 307 306 228 230 220 201 247 194 182 207 236 253 256 252 242 254 273 274 291 288 234 291 305 262 164 201 228 146 81 43 328 329 220 248 271 269 228 222 199 197
318 317 315 308 300 294 250 210 260 257 246 221 223 250 235 241 244 246 265 252 227 244 346 297 272 285 274 287 284 169 204 294 106 103 345 224 306 269 224 241 276 281 142 173
315 312 309 299 300 300 283 267 227 248 262 235 248 233 246 256 245 243 254 260 236 184 85 288 360 334 3 312 269 222 187 197 108 119 153 294 122 22 33 6 292 230 210 218
315 318 309 301 301 302 295 263 244 239 264 230 236 242 226 228 236 286 248 257 199 176 165 124 172 221 224 302 304 285 188 351 110 122 146 189 181 155 224 140 281 327 251 190
322 314 308 299 305 300 292 275 253 252 224 250 232 223 223 179 188 228 262 212 180 186 184 170 164 240 171 199 185 185 137 49 169 264 147 279 240 176 153 89 290 327 350 312
317 318 312 308 302 304 306 284 260 245 251 262 211 222 213 192 201 213 213 70 310 142 194 183 204 161 232 113 190 183 170 154 180 131 78 276 201 112 164 188 193 133 15 23
316 315 310 308 305 306 305 288 250 233 245 244 207 231 218 206 231 218 186 197 155 189 157 202 114 151 64 164 261 9 231 193 185 185 212 171 204 295 321 150 177 296 130 197
312 311 309 311 306 307 306 298 260 217 252 259 226 223 206 226 225 182 193 256 172 191 160 157 189 207 136 162 235 155 290 294 226 73 249 244 220 257 206 264 245 247 199 180
313 314 312 309 305 306 304 289 276 223 251 257 257 325 204 203 207 206 199 161 110 120 140 156 152 174 179 205 192 169 194 149 195 263 266 300 270 243 259 269 274 277 211 208
313 312 312 308 308 301 299 284 267 220 213 262 237 273 229 199 191 199 183 150 149 158 163 153 213 197 113 306 64 266 170 176 168 220 235 216 239 256 257 262 270 263 244 229
313 311 311 309 300 304 309 276 243 217 194 168 214 340 322 163 195 199 184 182 151 168 149 198 231 259 125 122 205 257 234 213 206 241 230 217 255 260 263 254 258 251 243 249
317 312 312 307 302 293 267 261 272 290 200 133 134 212 225 159 129 88 94 117 157 148 159 194 153 222 153 135 225 249 214 223 247 260 323 286 255 262 259 252 252 213 185 220
317 315 310 298 295 288 266 244 250 167 116 75 128 240 186 204 138 137 159 134 163 189 171 99 153 134 146 225 242 248 239 243 263 211 197 287 297 270 261 246 207 181 190 194
321 317 307 304 196 342 332 294 128 29 170 148 130 153 191 190 102 118 136 139 181 352 176 199 159 163 213 219 239 235 222 199 248 328 285 266 260 38 359 338 353 260 17 302
325 325 9 296 48 325 326 176 189 185 120 53 158 342 144 155 122 160 111 140 172 173 232 125 202 234 241 189 129 103 129 122 81 0 220 3 331 354 5 6 356 0 358 339
22 340 248 262 319 272 247 214 166 118 189 136 199 169 135 241 127 159 207 171 162 174 239 174 206 262 236 111 122 108 102 103 100 330 328 319 305 307 318 324 352 329 319 307
233 269 290 310 291 244 243 176 108 130 210 196 150 188 161 201 121 111 183 153 139 215 147 145 228 241 93 82 93 88 80 80 49 334 305 312 302 300 299 293 289 284 284 292
17 17 292 283 259 257 208 205 250 212 176 186 166 135 131 114 106 85 131 147 208 81 88 216 229 117 180 191 116 82 41 57 346 298 293 298 281 247 227 272 259 265 271 261
103 121 288 204 270 243 197 222 218 256 109 154 137 124 150 169 126 141 171 117 109 122 185 228 217 190 182 171 140 124 295 318 297 290 283 285 270 273 257 249 267 277 283 286
192 101 234 239 280 233 260 256 293 277 280 154 85 63 106 140 139 153 104 60 233 205 221 222 180 162 152 151 157 223 275 285 274 258 274 282 274 266 283 266 260 257 264 266
154 248 277 247 259 282 8 298 272 288 284 345 69 141 126 186 140 131 206 142 219 235 208 176 119 138 148 172 215 263 257 262 265 269 258 273 277 274 275 285 269 267 267 275
203 246 130 163 277 266 311 313 280 330 278 198 142 153 197 116 105 250 187 201 221 167 158 121 123 136 165 212 230 247 258 273 273 271 262 252 245 240 250 258 249 248 251 253